Flag for Switzerland Weather past 2 weeks in Bern, Bern, Switzerland

Now
57 °F

Light rain. Partly cloudy.


Feels Like: 57 °F
Forecast: 36 / 44 °F
Wind: 2 mph from North

Location: Bern / Belp

Current Time: Oct 21, 2014 at 3:00:38 AM

Latest Report: Oct 21, 2014 at 2:20 AM


Visibility: 6 mi

Pressure: 30.07 "Hg

Humidity: 100%

Dew point: 57 °F

Location of BernLocation

Historic Weather in Bern — Graph

°F

Bern temperature yesterday

Maximum temperature yesterday: 72 °F (at 2:20 PM)
Minimum temperature yesterday: 46 °F (at 4:20 AM)
Average temperature yesterday: 58 °F

Past Weeks' High & Low Weather Summary

 TemperatureHumidityPressure
High73 °F (Oct 9, 3:20 PM)100% (Oct 6, 1:50 AM)30.27 "Hg (Oct 6, 1:50 AM)
Low43 °F (Oct 19, 4:50 AM)50% (Oct 9, 3:20 PM)29.77 "Hg (Oct 13, 4:50 AM)
Average57 °F89%29.96 "Hg
* Reported Oct 6 1:20 AM — Oct 21 1:50 AM, Bern, Weather by CustomWeather, © 2014

Note: Actual official high and low records may vary slightly from our data, if they occured in-between our weather recording intervals... More about our weather records

Advertising

Bern weather history for previous 24 hours

 ConditionsComfort  
Time TempWeatherWind HumidityBarometerVisibility
1:50 AM
Oct 21
59 °FPassing clouds.6 mph94%30.07 "HgN/A
1:20 AM59 °FMostly cloudy.5 mph94%30.07 "HgN/A
12:50 AM59 °FPassing clouds.8 mph94%30.07 "HgN/A
12:20 AM59 °FLight rain. Partly cloudy.8 mph94%30.07 "Hg3 mi
11:50 PM
Oct 20
59 °FRain. Fog.3 mph94%30.09 "Hg3 mi
11:20 PM59 °FLight rain. Partly cloudy.2 mph94%30.09 "Hg4 mi
10:50 PM59 °FLight rain. Mostly cloudy.1 mph94%30.09 "Hg5 mi
10:20 PM59 °FSprinkles. Partly cloudy.1 mph94%30.09 "HgN/A
9:50 PM59 °FDrizzle. Overcast.5 mph94%30.07 "HgN/A
9:20 PM59 °FPassing clouds.3 mph94%30.07 "HgN/A
8:50 PM59 °FPartly cloudy.1 mph94%30.07 "HgN/A
8:20 PM59 °FPartly cloudy.3 mph94%30.07 "HgN/A
7:50 PM61 °FPassing clouds.1 mph88%30.07 "HgN/A
7:20 PM61 °FPartly sunny.2 mph88%30.07 "HgN/A
6:50 PM63 °FPartly sunny.No wind88%30.07 "HgN/A
6:20 PM64 °FPartly sunny.3 mph78%30.07 "HgN/A
5:50 PM66 °FBroken clouds.5 mph78%30.07 "HgN/A
5:20 PM68 °FPartly sunny.3 mph69%30.07 "HgN/A
4:50 PM70 °FScattered clouds.1 mph64%30.07 "HgN/A
4:20 PM70 °FSunny.2 mph60%30.09 "Hg10 mi
3:50 PM72 °FClear.5 mph57%30.09 "HgN/A
3:20 PM72 °FSunny.8 mph57%30.09 "Hg10 mi
2:50 PM72 °FPassing clouds.7 mph50%30.12 "HgN/A
2:20 PM72 °FSunny.2 mph53%30.12 "Hg10 mi
1:50 PM70 °FSunny.2 mph57%30.12 "Hg10 mi
1:20 PM68 °FSunny.2 mph64%30.15 "Hg10 mi
12:50 PM68 °FSunny.1 mph56%30.15 "Hg10 mi
12:20 PM64 °FSunny.1 mph64%30.18 "Hg10 mi
11:50 AM63 °FSunny.2 mph68%30.18 "Hg10 mi
11:20 AM61 °FSunny.2 mph72%30.18 "Hg10 mi
10:50 AM59 °FSunny.2 mph77%30.18 "Hg10 mi
10:20 AM54 °FSunny.1 mph94%30.18 "Hg10 mi
9:50 AM50 °FSunny.2 mph94%30.21 "Hg10 mi
9:20 AM50 °FPassing clouds.5 mph100%30.21 "HgN/A
8:50 AM48 °FClear.3 mph100%30.21 "Hg10 mi
8:20 AM46 °FClear.2 mph100%30.21 "Hg10 mi
7:50 AM46 °FClear.2 mph93%30.21 "Hg10 mi
7:20 AM46 °FClear.1 mph100%30.21 "Hg10 mi
6:50 AM46 °FClear.1 mph100%30.21 "Hg10 mi
5:20 AM48 °FClear.7 mph100%30.21 "Hg10 mi
4:50 AM48 °FClear.2 mph100%30.21 "HgN/A
4:20 AM46 °FCool.5 mph100%30.24 "HgN/A
3:50 AM48 °FClear.1 mph100%30.24 "HgN/A
3:20 AM48 °FClear.1 mph94%30.24 "HgN/A
Weather by CustomWeather, © 2014

See weather overviewHow to use our weather pages